SB KEPS @ AMSAT $ORB09160.O Orbital Elements 09160.OSCAR
HR AMSAT ORBITAL ELEMENTS FOR OSCAR SATELLITES FROM WA5QGD FORT WORTH,TX June 9, 2009 Send Subscribe/unsubscribe to KEPS at http://www.amsat.org/mailman/listinfo/keps BID: ORB09160.O TO ALL RADIO AMATEURS BT
Satellite: AO-07 Catalog number: 07530 Epoch time: 09160.58693488 Element set: 499 Inclination: 101.4264 deg RA of node: 185.5430 deg Eccentricity: 0.0011451 Arg of perigee: 283.2624 deg Mean anomaly: 076.7169 deg Mean motion: 12.53575789 rev/day Decay rate: -2.7e-07 rev/day^2 Epoch rev: 58176 Checksum: 330
Satellite: FO-29 Catalog number: 24278 Epoch time: 09159.79435357 Element set: 0070 Inclination: 098.5540 deg RA of node: 034.9574 deg Eccentricity: 0.0350740 Arg of perigee: 012.3166 deg Mean anomaly: 348.6274 deg Mean motion: 13.52943419 rev/day Decay rate: -3.5e-07 rev/day^2 Epoch rev: 63261 Checksum: 322
Satellite: SO-33 Catalog number: 25509 Epoch time: 09160.22645358 Element set: 471 Inclination: 031.4337 deg RA of node: 097.5081 deg Eccentricity: 0.0355016 Arg of perigee: 268.8481 deg Mean anomaly: 087.1473 deg Mean motion: 14.28252859 rev/day Decay rate: -7.4e-07 rev/day^2 Epoch rev: 55469 Checksum: 326
Satellite: RS-22 Catalog number: 27939 Epoch time: 09159.85636821 Element set: 0811 Inclination: 097.9459 deg RA of node: 035.0304 deg Eccentricity: 0.0013979 Arg of perigee: 154.4464 deg Mean anomaly: 205.7419 deg Mean motion: 14.63321411 rev/day Decay rate: 9.6e-07 rev/day^2 Epoch rev: 30435 Checksum: 317
Satellite: VO-52 Catalog number: 28650 Epoch time: 09160.35033788 Element set: 244 Inclination: 097.7445 deg RA of node: 222.1913 deg Eccentricity: 0.0028077 Arg of perigee: 057.0497 deg Mean anomaly: 303.3422 deg Mean motion: 14.81593267 rev/day Decay rate: 4.50e-06 rev/day^2 Epoch rev: 22148 Checksum: 302
/EX SB KEPS @ AMSAT $ORB09160.D Orbital Elements 09160.MICROS
HR AMSAT ORBITAL ELEMENTS FOR THE MICROSATS FROM WA5QGD FORT WORTH,TX June 9, 2009 Send Subscribe/unsubscribe to KEPS at http://www.amsat.org/mailman/listinfo/keps BID: ORB09160.D TO ALL RADIO AMATEURS BT
Satellite: AO-16 Catalog number: 20439 Epoch time: 09159.95804628 Element set: 0624 Inclination: 098.2767 deg RA of node: 128.7343 deg Eccentricity: 0.0010460 Arg of perigee: 190.8300 deg Mean anomaly: 169.2670 deg Mean motion: 14.31825823 rev/day Decay rate: 1.0e-08 rev/day^2 Epoch rev: 01197 Checksum: 301
Satellite: LO-19 Catalog number: 20442 Epoch time: 09160.71506900 Element set: 542 Inclination: 098.2405 deg RA of node: 136.7495 deg Eccentricity: 0.0011957 Arg of perigee: 184.4634 deg Mean anomaly: 175.6451 deg Mean motion: 14.32061640 rev/day Decay rate: 4.8e-07 rev/day^2 Epoch rev: 1224 Checksum: 281
Satellite: AO-27 Catalog number: 22825 Epoch time: 09159.60487817 Element set: 0263 Inclination: 098.4370 deg RA of node: 113.2992 deg Eccentricity: 0.0007426 Arg of perigee: 291.0005 deg Mean anomaly: 069.0380 deg Mean motion: 14.29266834 rev/day Decay rate: -1.0e-08 rev/day^2 Epoch rev: 81868 Checksum: 314
Satellite: IO-26 Catalog number: 22826 Epoch time: 09160.78648506 Element set: 989 Inclination: 098.4293 deg RA of node: 115.1944 deg Eccentricity: 0.0007992 Arg of perigee: 284.5946 deg Mean anomaly: 075.4349 deg Mean motion: 14.29518900 rev/day Decay rate: -9.0e-08 rev/day^2 Epoch rev: 81895 Checksum: 363
Satellite: GO-32 Catalog number: 25397 Epoch time: 09159.77645956 Element set: 0913 Inclination: 098.3258 deg RA of node: 182.5671 deg Eccentricity: 0.0000318 Arg of perigee: 308.7497 deg Mean anomaly: 051.3636 deg Mean motion: 14.23158943 rev/day Decay rate: -1.56e-06 rev/day^2 Epoch rev: 56693 Checksum: 348
Satellite: NO-44 Catalog number: 26931 Epoch time: 09160.79841529 Element set: 188 Inclination: 067.0529 deg RA of node: 083.3803 deg Eccentricity: 0.0005484 Arg of perigee: 271.5552 deg Mean anomaly: 088.4934 deg Mean motion: 14.29558716 rev/day Decay rate: 8.1e-07 rev/day^2 Epoch rev: 40152 Checksum: 325
Satellite: SO-50 Catalog number: 27607 Epoch time: 09160.77986587 Element set: 905 Inclination: 064.5602 deg RA of node: 047.5872 deg Eccentricity: 0.0068011 Arg of perigee: 207.4197 deg Mean anomaly: 152.3261 deg Mean motion: 14.71439307 rev/day Decay rate: -2.68e-06 rev/day^2 Epoch rev: 34758 Checksum: 329
Satellite: CO-55 Catalog number: 27844 Epoch time: 09160.73783787 Element set: 597 Inclination: 098.7120 deg RA of node: 170.0082 deg Eccentricity: 0.0010218 Arg of perigee: 159.5541 deg Mean anomaly: 200.6034 deg Mean motion: 14.20641144 rev/day Decay rate: 3.0e-07 rev/day^2 Epoch rev: 30820 Checksum: 278
Satellite: CO-57 Catalog number: 27848 Epoch time: 09160.00992685 Element set: 543 Inclination: 098.7135 deg RA of node: 168.3520 deg Eccentricity: 0.0009662 Arg of perigee: 166.2155 deg Mean anomaly: 193.9286 deg Mean motion: 14.20442716 rev/day Decay rate: 2.1e-07 rev/day^2 Epoch rev: 30806 Checksum: 315
Satellite: AO-51 Catalog number: 28375 Epoch time: 09160.60239766 Element set: 408 Inclination: 098.0518 deg RA of node: 170.6484 deg Eccentricity: 0.0083823 Arg of perigee: 147.4309 deg Mean anomaly: 213.2090 deg Mean motion: 14.40644237 rev/day Decay rate: 1.2e-07 rev/day^2 Epoch rev: 25986 Checksum: 307
Satellite: CO-56 Catalog number: 28941 Epoch time: 09160.64089696 Element set: 149 Inclination: 098.1354 deg RA of node: 333.6568 deg Eccentricity: 0.0087717 Arg of perigee: 160.9915 deg Mean anomaly: 199.4569 deg Mean motion: 15.83617954 rev/day Decay rate: 7.4664e-04 rev/day^2 Epoch rev: 18605 Checksum: 385
Satellite: GENESAT1 Catalog number: 29655 Epoch time: 09159.63582989 Element set: 727 Inclination: 040.0246 deg RA of node: 236.8943 deg Eccentricity: 0.0001617 Arg of perigee: 007.7242 deg Mean anomaly: 352.3600 deg Mean motion: 15.65478441 rev/day Decay rate: 1.1915e-04 rev/day^2 Epoch rev: 14113 Checksum: 304
Satellite: CP3 Catalog number: 31129 Epoch time: 09160.73038829 Element set: 984 Inclination: 097.9885 deg RA of node: 214.1628 deg Eccentricity: 0.0101916 Arg of perigee: 309.0000 deg Mean anomaly: 050.2138 deg Mean motion: 14.52136175 rev/day Decay rate: 9.1e-07 rev/day^2 Epoch rev: 11380 Checksum: 283
Satellite: CO-65 Catalog number: 32785 Epoch time: 09159.34475686 Element set: 0389 Inclination: 097.9459 deg RA of node: 223.3844 deg Eccentricity: 0.0016173 Arg of perigee: 062.5907 deg Mean anomaly: 297.6950 deg Mean motion: 14.81488381 rev/day Decay rate: 2.31e-06 rev/day^2 Epoch rev: 06013 Checksum: 349
Satellite: KKS-1 Catalog number: 33493 Epoch time: 09160.80076684 Element set: 458 Inclination: 098.0564 deg RA of node: 272.9772 deg Eccentricity: 0.0018741 Arg of perigee: 266.0322 deg Mean anomaly: 093.8755 deg Mean motion: 14.80680056 rev/day Decay rate: 2.41e-06 rev/day^2 Epoch rev: 2037 Checksum: 309
Satellite: SOHLA-1 Catalog number: 33496 Epoch time: 09160.76011517 Element set: 419 Inclination: 098.0375 deg RA of node: 270.1836 deg Eccentricity: 0.0005854 Arg of perigee: 316.6836 deg Mean anomaly: 043.3916 deg Mean motion: 14.69436165 rev/day Decay rate: 1.6e-07 rev/day^2 Epoch rev: 2018 Checksum: 298
/EX SB KEPS @ AMSAT $ORB09160.W Orbital Elements 09160.WEATHER
HR AMSAT ORBITAL ELEMENTS FOR WEATHER SATELLITES FROM WA5QGD FORT WORTH,TX June 9, 2009 Send Subscribe/unsubscribe to KEPS at http://www.amsat.org/mailman/listinfo/keps BID: ORB09160.W TO ALL RADIO AMATEURS BT
Satellite: NOAA-10 Catalog number: 16969 Epoch time: 09159.60520856 Element set: 0642 Inclination: 098.6907 deg RA of node: 186.2992 deg Eccentricity: 0.0011611 Arg of perigee: 219.5101 deg Mean anomaly: 140.5241 deg Mean motion: 14.27387980 rev/day Decay rate: 1.0e-07 rev/day^2 Epoch rev: 18228 Checksum: 304
Satellite: NOAA-11 Catalog number: 19531 Epoch time: 09159.72144250 Element set: 0655 Inclination: 098.7848 deg RA of node: 249.8048 deg Eccentricity: 0.0012213 Arg of perigee: 130.1440 deg Mean anomaly: 230.0803 deg Mean motion: 14.14897566 rev/day Decay rate: 1.72e-06 rev/day^2 Epoch rev: 06832 Checksum: 293
Satellite: NOAA-12 Catalog number: 21263 Epoch time: 09159.96571630 Element set: 0165 Inclination: 098.7708 deg RA of node: 168.0227 deg Eccentricity: 0.0012352 Arg of perigee: 165.3764 deg Mean anomaly: 194.7775 deg Mean motion: 14.25581533 rev/day Decay rate: 2.1e-07 rev/day^2 Epoch rev: 93922 Checksum: 316
Satellite: MET-3/5 Catalog number: 21655 Epoch time: 09159.94457649 Element set: 0673 Inclination: 082.5524 deg RA of node: 212.3149 deg Eccentricity: 0.0012758 Arg of perigee: 197.0024 deg Mean anomaly: 163.0673 deg Mean motion: 13.17019367 rev/day Decay rate: 5.1e-07 rev/day^2 Epoch rev: 85654 Checksum: 318
Satellite: MET-2/21 Catalog number: 22782 Epoch time: 09159.64614228 Element set: 478 Inclination: 082.5476 deg RA of node: 188.7824 deg Eccentricity: 0.0022927 Arg of perigee: 014.9134 deg Mean anomaly: 345.2718 deg Mean motion: 13.83635632 rev/day Decay rate: 6.3e-07 rev/day^2 Epoch rev: 79642 Checksum: 334
Satellite: OKEAN-4 Catalog number: 23317 Epoch time: 09159.79890566 Element set: 0932 Inclination: 082.5378 deg RA of node: 342.3153 deg Eccentricity: 0.0023448 Arg of perigee: 035.4348 deg Mean anomaly: 324.8410 deg Mean motion: 14.82700493 rev/day Decay rate: -4.9e-07 rev/day^2 Epoch rev: 79112 Checksum: 315
Satellite: NOAA-14 Catalog number: 23455 Epoch time: 09159.74874141 Element set: 0646 Inclination: 098.9096 deg RA of node: 237.4583 deg Eccentricity: 0.0009077 Arg of perigee: 209.7503 deg Mean anomaly: 150.3142 deg Mean motion: 14.13764132 rev/day Decay rate: 7.7e-07 rev/day^2 Epoch rev: 74473 Checksum: 320
Satellite: NOAA-15 Catalog number: 25338 Epoch time: 09159.76620689 Element set: 0957 Inclination: 098.5833 deg RA of node: 149.1580 deg Eccentricity: 0.0011785 Arg of perigee: 083.2590 deg Mean anomaly: 276.9896 deg Mean motion: 14.24764798 rev/day Decay rate: 6.7e-07 rev/day^2 Epoch rev: 57557 Checksum: 381
